"Time","Temp","Dewpoint","Humidity","Pressure","Direction","Speed","Gust","Precip","PrecipRate"
"00:04:58","37.4","32.4","82","30.31","342","0","0","0.00","0.00"
"00:09:59","37.2","32","81.2","30.31","342","0","0","0.00","0.00"
"00:14:59","36.9","31.6","81.1","30.31","342","0","1","0.00","0.00"
"00:19:57","36.6","31.5","81.6","30.31","342","0","1.2","0.00","0.00"
"00:24:56","36.4","31.4","81.9","30.31","342","0","1.2","0.00","0.00"
"00:29:59","36.3","31.2","81.7","30.31","342","0","0","0.00","0.00"
"00:34:58","36.2","31.2","82.1","30.31","342","0","0","0.00","0.00"
"00:39:57","36.1","31.4","83","30.31","342","0","1.2","0.00","0.00"
"00:44:56","35.9","31.2","83","30.31","342","0.2","1.2","0.00","0.00"
"00:49:58","35.8","30.9","82.5","30.31","342","0","1.2","0.00","0.00"
"00:54:56","35.6","30.6","82","30.31","342","0","0","0.00","0.00"
"00:59:59","35.5","30.7","82.7","30.31","342","0.3","2.3","0.00","0.00"
"01:04:59","35.4","30.3","81.5","30.31","342","0.6","3.5","0.00","0.00"
"01:09:59","35.3","30.3","81.6","30.31","342","0.1","3.5","0.00","0.00"
"01:14:59","35.2","30.6","83","30.31","342","0.1","1.2","0.00","0.00"
"01:19:57","35.1","30.7","83.6","30.31","342","0.3","1.2","0.00","0.00"
"01:24:59","35","30.6","83.8","30.31","342","0","0","0.00","0.00"
"01:29:58","35","30.3","82.9","30.31","342","0","0","0.00","0.00"
"01:34:56","34.9","30.5","83.8","30.31","342","0","0","0.00","0.00"
"01:39:56","34.8","30.7","84.6","30.31","342","0","0","0.00","0.00"
"01:44:58","34.7","30.6","84.5","30.31","342","0.6","2.3","0.00","0.00"
"01:49:59","34.7","30.8","85.5","30.31","342","0","0","0.00","0.00"
"01:54:58","34.7","30.9","86","30.31","342","0","0","0.00","0.00"
"01:59:59","34.6","30.8","85.8","30.31","342","0","0","0.00","0.00"
"02:04:56","34.5","30.7","85.8","30.31","342","0","0","0.00","0.00"
"02:09:59","34.4","30.6","86","30.31","342","0","0","0.00","0.00"
"02:14:59","34.3","30.4","85.7","30.31","342","0","0","0.00","0.00"
"02:19:57","34.2","30.4","85.8","30.30","342","0","0","0.00","0.00"
"02:24:59","34","30.1","85.2","30.30","342","0","0","0.00","0.00"
"02:29:57","33.8","30","85.7","30.30","342","0","0","0.00","0.00"
"02:34:59","33.8","30.2","86.2","30.30","342","0","0","0.00","0.00"
"02:39:58","33.9","30.2","86","30.30","342","0","0","0.00","0.00"
"02:44:56","33.9","30.3","86.5","30.30","342","0","0","0.00","0.00"
"02:49:57","34","30.5","87","30.30","342","0","0","0.00","0.00"
"02:54:58","34.1","30.6","87","30.30","342","0","0","0.00","0.00"
"02:59:55","34.1","30.6","87","30.31","342","0","0","0.00","0.00"
"03:04:57","33.9","30.2","86.2","30.31","342","0.1","2","0.00","0.00"
"03:09:56","33.7","30.2","86.7","30.31","342","0.3","2.3","0.00","0.00"
"03:14:58","33.7","30.2","87","30.31","342","0.1","2.3","0.00","0.00"
"03:19:59","33.6","30.1","86.8","30.31","342","0","1.2","0.00","0.00"
"03:24:57","33.7","30.1","86.7","30.31","342","0.4","2.3","0.00","0.00"
"03:29:59","33.7","30.2","87","30.31","342","0.1","1.2","0.00","0.00"
"03:34:59","33.5","30","87","30.31","342","0.1","1.2","0.00","0.00"
"03:39:56","33.4","29.9","87","30.31","342","0","0","0.00","0.00"
"03:44:56","33.3","29.8","87","30.31","342","0","0","0.00","0.00"
"03:49:57","33.3","30","87.8","30.31","342","0","0","0.00","0.00"
"03:54:57","33.3","30.1","88","30.31","342","0","0","0.00","0.00"
"03:59:56","33.3","30","87.7","30.31","342","0","0","0.00","0.00"
"04:04:57","33.3","29.9","87.4","30.31","342","0","0","0.00","0.00"
"04:09:56","33.1","29.7","87","30.31","342","0","0","0.00","0.00"
"04:14:59","33","29.8","87.8","30.31","342","0.5","2.3","0.00","0.00"
"04:19:59","33.1","30.2","89","30.31","342","0.2","2","0.00","0.00"
"04:24:56","33.2","30.3","89","30.31","342","0.1","1.2","0.00","0.00"
"04:29:56","33.2","30.2","88.5","30.32","342","0.2","1.2","0.00","0.00"
"04:34:57","33.2","30","88","30.32","342","0","0","0.00","0.00"
"04:39:57","33","29.8","88","30.32","342","0","1","0.00","0.00"
"04:44:56","33","29.8","88","30.32","342","0.2","1.2","0.00","0.00"
"04:49:56","33","29.8","88","30.31","342","0","1","0.00","0.00"
"04:54:59","33","29.7","87.6","30.31","342","0","0","0.00","0.00"
"04:59:59","32.8","29.4","87","30.31","342","0","0","0.00","0.00"
"05:04:56","32.8","29.6","88","30.31","342","0.2","1.2","0.00","0.00"
"05:09:59","32.9","29.7","88","30.31","342","0","0","0.00","0.00"
"05:14:55","32.8","29.6","88","30.32","342","0","0","0.00","0.00"
"05:19:59","32.6","29.4","88","30.32","342","0","0","0.00","0.00"
"05:24:59","32.5","29.3","88","30.32","342","0","0","0.00","0.00"
"05:29:58","32.4","29.2","88","30.32","342","0","0","0.00","0.00"
"05:34:58","32.3","29.3","88.7","30.32","342","0.4","2","0.00","0.00"
"05:39:59","32.3","29.5","89.3","30.32","342","0.5","2.3","0.00","0.00"
"05:44:58","32.4","29.8","90","30.33","342","0.3","1.2","0.00","0.00"
"05:49:57","32.5","29.9","90","30.33","342","0","0","0.00","0.00"
"05:54:57","32.5","29.9","90","30.33","342","0","0","0.00","0.00"
"05:59:56","32.4","29.8","90","30.33","342","0.1","2.3","0.00","0.00"
"06:04:57","32.3","29.7","90","30.33","342","0.1","1.2","0.00","0.00"
"06:09:57","32.1","29.5","90","30.33","342","0","0","0.00","0.00"
"06:14:57","32.1","29.5","90.1","30.34","342","0","0","0.00","0.00"
"06:19:57","32.1","29.8","91","30.34","342","0","0","0.00","0.00"
"06:24:56","32.1","29.6","90.5","30.34","342","0","0","0.00","0.00"
"06:29:59","32","29.4","90","30.34","342","0","0","0.00","0.00"
"06:34:59","32","29.6","90.6","30.34","342","0.1","1.2","0.00","0.00"
"06:39:56","32.2","29.9","91","30.34","342","0.1","1.2","0.00","0.00"
"06:44:56","32.4","30.1","91","30.35","342","0","0","0.00","0.00"
"06:49:56","32.8","30.5","91","30.35","342","0","0","0.00","0.00"
"06:54:56","33.1","30.8","91","30.35","342","0","0","0.00","0.00"
"06:59:59","33.4","30.8","90.3","30.35","342","0","0","0.00","0.00"
"07:04:58","33.7","31","89.8","30.35","342","0.1","1.2","0.00","0.00"
"07:09:56","33.8","30.9","89","30.35","342","0","0","0.00","0.00"
"07:14:59","33.8","30.7","88.5","30.36","350","0.2","2","0.00","0.00"
"07:19:56","34","31.1","89","30.36","53","0.9","3.5","0.00","0.00"
"07:24:58","34.7","32.1","89.8","30.36","147","0.8","3","0.00","0.00"
"07:29:59","35.8","32.9","88.8","30.36","147","0.5","2.3","0.00","0.00"
"07:34:59","36.8","33.3","87","30.36","146","0.1","2.3","0.00","0.00"
"07:39:57","37.6","33.6","85.3","30.36","146","0.4","2.3","0.00","0.00"
"07:44:58","38.3","33.9","83.8","30.36","147","0.1","1.2","0.00","0.00"
"07:49:58","38.7","33.8","82.3","30.36","147","0","1.2","0.00","0.00"
"07:54:59","39.4","34.6","82.7","30.36","144","0.6","2.3","0.00","0.00"
"07:59:57","40.4","35.2","81.7","30.37","140","1.2","3.5","0.00","0.00"
"08:04:59","41.3","35.7","80.4","30.37","126","1.9","4","0.00","0.00"
"08:09:55","42","36","79.1","30.37","108","2.6","4","0.00","0.00"
"08:14:58","42.5","36.4","79","30.37","111","1.6","3.5","0.00","0.00"
"08:19:58","43.1","36.7","77.9","30.37","132","1.7","4","0.00","0.00"
"08:24:59","43.4","37","77.9","30.37","118","1.5","4","0.00","0.00"
"08:29:59","43.7","37.4","78.3","30.38","190","2.6","5","0.00","0.00"
"08:34:59","44.1","37.9","78.9","30.38","170","1.8","4","0.00","0.00"
"08:39:57","44.6","38","77.5","30.38","153","2.2","5","0.00","0.00"
"08:44:58","45.3","38.7","77.6","30.38","147","1.5","3.5","0.00","0.00"
"08:49:58","45.9","38.8","76.2","30.38","172","3.1","9.2","0.00","0.00"
"08:54:58","46.3","38.9","75","30.38","172","2.5","6","0.00","0.00"
"08:59:59","46.7","38.8","74","30.38","175","3","6","0.00","0.00"
"09:04:56","46.9","39","73.9","30.38","189","3.2","8.1","0.00","0.00"
"09:09:59","47.4","39.6","74.4","30.38","176","2","5","0.00","0.00"
"09:14:59","48","39.5","72.1","30.38","188","2.7","5","0.00","0.00"
"09:19:57","48.4","39.3","70.7","30.38","191","2.5","6","0.00","0.00"
"09:24:58","48.7","39.2","69.5","30.38","189","3.3","6","0.00","0.00"
"09:29:56","49","39.5","69.5","30.38","154","2.4","5","0.00","0.00"
"09:34:58","49.7","39.7","68.3","30.37","112","3.4","6","0.00","0.00"
"09:39:58","50.1","39.8","67.7","30.37","109","3.2","5","0.00","0.00"
"09:44:56","50.5","40","67.1","30.37","140","2.5","6","0.00","0.00"
"09:49:58","51.1","40.1","66.2","30.37","141","3.6","6","0.00","0.00"
"09:54:56","51.6","40.8","66.4","30.37","165","2.8","6","0.00","0.00"
"09:59:57","52.1","40.5","64.6","30.37","172","3.3","6","0.00","0.00"
"10:04:56","52.3","40.3","63.4","30.37","173","2.5","6","0.00","0.00"
"10:09:58","52.8","41","64.1","30.37","175","2.3","4.6","0.00","0.00"
"10:14:58","53.5","41.6","63.9","30.37","175","3","7","0.00","0.00"
"10:19:56","54.1","40.9","60.9","30.37","149","3.5","7","0.00","0.00"
"10:24:57","54.6","40.6","59.2","30.37","118","3.8","9.2","0.00","0.00"
"10:29:59","55.2","41.6","60.1","30.37","164","2.1","5","0.00","0.00"
"10:34:56","55.9","41.4","58","30.37","130","2.7","6","0.00","0.00"
"10:39:56","56.5","41.3","56.9","30.37","179","4.9","11.5","0.00","0.00"
"10:44:58","56.9","41.6","56.5","30.37","155","2.6","9","0.00","0.00"
"10:49:56","57.5","40.6","53.3","30.37","165","3.7","9.2","0.00","0.00"
"10:54:58","58.1","40.6","52.1","30.37","185","5.3","11.5","0.00","0.00"
"10:59:56","58.5","39.7","49.7","30.37","188","5","12","0.00","0.00"
"11:04:58","58.9","39.7","48.9","30.36","181","5.5","13","0.00","0.00"
"11:09:56","59.5","41.3","50.9","30.36","177","4.1","11.5","0.00","0.00"
"11:14:55","60.1","40.2","47.8","30.36","163","4.8","13","0.00","0.00"
"11:19:58","60.6","40.5","47.4","30.36","188","4.3","10.4","0.00","0.00"
"11:24:57","61.1","40.1","46","30.36","171","4.7","12","0.00","0.00"
"11:29:59","61.3","40.1","45.6","30.36","189","5.6","10.4","0.00","0.00"
"11:34:57","61.6","40.5","45.8","30.35","186","5.5","11.5","0.00","0.00"
"11:39:58","61.9","39.5","43.8","30.35","201","7","14","0.00","0.00"
"11:44:57","62.1","40.1","44.3","30.35","203","7.8","15","0.00","0.00"
"11:49:56","62.3","40.6","44.9","30.35","182","5.1","11","0.00","0.00"
"11:54:59","62.8","38.7","41.1","30.35","179","5.7","12","0.00","0.00"
"11:59:57","63.1","40.6","43.6","30.35","189","6.6","13","0.00","0.00"
"12:04:56","63.6","40.8","43.1","30.34","195","6.1","12.7","0.00","0.00"
"12:09:57","63.7","39.8","41.5","30.34","182","7.1","15","0.00","0.00"
"12:14:58","63.8","39","39.9","30.34","199","8.9","17.3","0.00","0.00"
"12:19:57","63.8","40","41.5","30.33","203","7.4","16.1","0.00","0.00"
"12:24:57","64.1","39.7","40.7","30.33","176","6.8","13","0.00","0.00"
"12:29:57","64.2","40","41","30.33","191","5.1","11.5","0.00","0.00"
"12:34:56","64.7","40.9","41.7","30.32","180","5.1","12","0.00","0.00"
"12:39:58","64.9","41","41.5","30.32","173","5","13","0.00","0.00"
"12:44:57","65.1","40.3","40.2","30.32","181","5.7","14","0.00","0.00"
"12:49:57","65.5","40.5","39.9","30.31","197","8.1","14","0.00","0.00"
"12:54:56","65.9","40","38.7","30.31","195","7.3","16","0.00","0.00"
"12:59:59","66.3","39.4","37.3","30.31","190","7.3","15","0.00","0.00"
"13:04:58","66.4","39.5","37.3","30.31","195","8.8","17.3","0.00","0.00"
"13:09:59","66.5","40.4","38.5","30.31","198","8","17.3","0.00","0.00"
"13:14:56","66.7","39.6","37","30.31","187","7.5","16.1","0.00","0.00"
"13:19:59","66.9","39","35.9","30.31","193","7.2","16","0.00","0.00"
"13:24:57","67","38.6","35.2","30.31","175","8.1","16","0.00","0.00"
"13:29:56","67","38.8","35.6","30.31","157","6.2","16.1","0.00","0.00"
"13:34:57","67.2","39.3","36","30.30","119","5.2","15","0.00","0.00"
"13:39:58","67.6","40.3","36.9","30.30","200","6.3","15","0.00","0.00"
"13:44:56","68.1","40.5","36.7","30.30","208","8.4","20","0.00","0.00"
"13:49:59","68","39.7","35.5","30.29","191","7.5","19.6","0.00","0.00"
"13:54:58","68","40.3","36.4","30.29","198","8","16","0.00","0.00"
"13:59:58","68","39.6","35.4","30.29","153","6.5","13.8","0.00","0.00"
"14:04:57","68","40.7","37","30.28","189","8.3","17.3","0.00","0.00"
"14:09:57","68.2","40.7","36.7","30.28","192","7.1","17.3","0.00","0.00"
"14:14:58","68.5","40.5","36","30.28","184","6.9","13","0.00","0.00"
"14:19:56","68.8","39.5","34.3","30.28","181","6.8","14","0.00","0.00"
"14:24:56","69.1","41.3","36.5","30.28","195","8.5","18.4","0.00","0.00"
"14:29:58","69.3","39.8","34","30.28","180","5.9","14","0.00","0.00"
"14:34:58","69.7","41.3","35.7","30.27","199","8.2","16.1","0.00","0.00"
"14:39:55","69.6","40.3","34.4","30.27","196","6.7","15","0.00","0.00"
"14:44:58","69.6","40.9","35.2","30.27","187","7.5","16.1","0.00","0.00"
"14:49:58","69.8","40.3","34.2","30.26","166","5.6","13.8","0.00","0.00"
"14:54:57","70","39.7","33.2","30.26","186","7.6","13","0.00","0.00"
"14:59:57","69.8","40.3","34.2","30.26","180","6.8","19.6","0.00","0.00"
"15:04:56","69.6","40","34","30.26","200","10.1","19.6","0.00","0.00"
"15:09:58","69.7","41.6","36","30.26","192","6.2","13","0.00","0.00"
"15:14:59","70.1","41.4","35.3","30.26","197","6","13","0.00","0.00"
"15:19:58","70.4","41","34.4","30.25","188","6.9","13","0.00","0.00"
"15:24:56","70.3","39.6","32.7","30.25","134","5.6","14","0.00","0.00"
"15:29:59","70.2","40.8","34.5","30.25","171","4.4","12","0.00","0.00"
"15:34:58","70.6","41","34.3","30.24","182","5.8","12","0.00","0.00"
"15:39:55","71.2","42.1","35","30.24","173","6","13","0.00","0.00"
"15:44:59","71","40.6","33.4","30.24","171","5.5","15","0.00","0.00"
"15:49:58","71","40.4","33.1","30.23","177","7.7","19.6","0.00","0.00"
"15:54:57","70.8","39.7","32.3","30.23","179","6.4","16.1","0.00","0.00"
"15:59:56","70.5","39.7","32.7","30.23","161","6.6","16.1","0.00","0.00"
"16:04:59","70.5","40.8","34.1","30.23","179","5.9","13","0.00","0.00"
"16:09:56","71.1","41.9","34.9","30.23","163","5.5","11.5","0.00","0.00"
"16:14:57","71.1","39.9","32.2","30.23","166","6.9","16","0.00","0.00"
"16:19:56","71","40.4","33.1","30.22","192","9","16.1","0.00","0.00"
"16:24:59","70.8","39.4","32","30.22","178","7.2","14","0.00","0.00"
"16:29:59","70.8","40.2","32.9","30.23","162","5.4","15","0.00","0.00"
"16:34:58","70.8","40.8","33.7","30.23","192","7.6","16.1","0.00","0.00"
"16:39:59","70.7","40.4","33.2","30.23","196","9.7","17.3","0.00","0.00"
"16:44:58","70.8","41.2","34.3","30.23","205","6.1","12","0.00","0.00"
"16:49:58","71","41.5","34.3","30.22","165","4.6","11.5","0.00","0.00"
"16:54:58","71.4","40.1","32.2","30.22","156","4.8","10.4","0.00","0.00"
"16:59:59","71.5","41.1","33.2","30.22","174","4.8","11","0.00","0.00"
"17:04:58","71.6","40.2","32.1","30.22","174","4.8","11","0.00","0.00"
"17:09:56","71.4","40","32.1","30.22","146","4.6","11.5","0.00","0.00"
"17:14:57","71","40","32.4","30.22","123","6.9","15","0.00","0.00"
"17:19:57","70.4","39.7","32.7","30.21","142","6.5","11.5","0.00","0.00"
"17:24:58","70.4","39.8","32.9","30.21","161","6.4","13","0.00","0.00"
"17:29:58","70.4","39.4","32.4","30.21","139","6.6","15","0.00","0.00"
"17:34:58","70.3","39.4","32.5","30.20","171","5.8","17","0.00","0.00"
"17:39:59","70.2","39.3","32.4","30.20","167","5.9","14","0.00","0.00"
"17:44:58","70.2","39.6","32.8","30.20","160","4","10.4","0.00","0.00"
"17:49:57","70.2","38.8","31.9","30.20","182","4.7","10","0.00","0.00"
"17:54:57","69.9","39.7","33.3","30.20","184","4.2","12","0.00","0.00"
"17:59:57","69.5","39.7","33.8","30.20","185","4.6","11.5","0.00","0.00"
"18:04:55","69.2","38.4","32.3","30.20","178","4.9","13","0.00","0.00"
"18:09:57","69.1","38.5","32.6","30.20","163","5.5","15","0.00","0.00"
"18:14:56","69","38.9","33.3","30.21","175","5.6","15","0.00","0.00"
"18:19:58","68.8","39.9","34.8","30.21","166","3.2","10","0.00","0.00"
"18:24:56","68.5","39.5","34.7","30.21","173","5","12","0.00","0.00"
"18:29:58","68.3","39.3","34.6","30.21","172","4.1","10.4","0.00","0.00"
"18:34:56","68.1","39.4","35","30.21","176","5.2","12","0.00","0.00"
"18:39:56","67.9","38.7","34.3","30.21","134","4.2","11","0.00","0.00"
"18:44:58","67.7","38.5","34.3","30.21","152","3.6","13","0.00","0.00"
"18:49:56","67.5","38.6","34.7","30.21","177","3.1","7","0.00","0.00"
"18:54:58","67.4","38.3","34.4","30.21","168","4.7","9.2","0.00","0.00"
"18:59:56","67.4","38.3","34.4","30.21","156","3.6","10.4","0.00","0.00"
"19:04:59","67.3","38","34","30.20","148","3.6","9.2","0.00","0.00"
"19:09:56","67.1","37.8","34","30.20","149","3.1","7","0.00","0.00"
"19:14:57","66.9","37.7","34.2","30.20","157","3.1","9.2","0.00","0.00"
"19:19:56","66.7","38.4","35.3","30.20","154","2.3","9.2","0.00","0.00"
"19:24:59","66.4","38.2","35.5","30.20","178","2.9","6.9","0.00","0.00"
"19:29:57","66.2","38.5","36.1","30.20","139","2.6","5.8","0.00","0.00"
"19:34:57","65.9","38.5","36.4","30.20","154","2.3","5","0.00","0.00"
"19:39:59","65.6","38.5","36.8","30.20","156","1.8","4.6","0.00","0.00"
"19:44:56","65.4","38.5","37.1","30.20","161","2.2","6","0.00","0.00"
"19:49:56","65.2","38.9","38","30.20","146","2.4","6","0.00","0.00"
"19:54:56","65","41.1","41.6","30.20","105","4.8","9","0.00","0.00"
"19:59:56","64.5","43.2","45.9","30.20","119","5.1","10.4","0.00","0.00"
"20:04:56","63.9","44.1","48.7","30.20","110","4.4","10","0.00","0.00"
"20:09:57","63.3","44.4","50.2","30.20","119","4.5","11.5","0.00","0.00"
"20:14:56","62.8","44.6","51.3","30.20","131","3.5","10.4","0.00","0.00"
"20:19:57","62.4","44.5","52","30.20","125","4.3","10.4","0.00","0.00"
"20:24:57","62.1","44.7","52.7","30.20","129","3.5","6.9","0.00","0.00"
"20:29:58","61.9","44.7","53.3","30.20","130","2.7","10","0.00","0.00"
"20:34:58","61.6","44.8","54","30.20","126","4.1","10.4","0.00","0.00"
"20:39:57","61.3","44.5","54","30.20","135","3.8","10.4","0.00","0.00"
"20:44:57","61","44.5","54.5","30.20","122","3.6","9.2","0.00","0.00"
"20:49:58","60.7","44.3","54.8","30.20","123","3.1","10.4","0.00","0.00"
"20:54:59","60.5","44.2","55","30.20","117","4.8","10.4","0.00","0.00"
"20:59:59","60.3","44.1","55.2","30.20","110","3.9","11.5","0.00","0.00"
"21:04:59","60","44.3","56","30.20","109","4.4","10.4","0.00","0.00"
"21:09:57","59.8","44.1","56","30.20","124","4.3","9.2","0.00","0.00"
"21:14:59","59.6","43.9","56","30.20","122","4.5","10.4","0.00","0.00"
"21:19:56","59.4","44.1","56.9","30.20","126","4","11.5","0.00","0.00"
"21:24:57","59.2","44","57","30.20","162","3.1","9","0.00","0.00"
"21:29:57","59","43.8","57","30.21","143","3.5","9","0.00","0.00"
"21:34:58","58.8","43.8","57.3","30.21","186","1.9","5","0.00","0.00"
"21:39:57","58.4","43.8","58.1","30.21","203","1.6","3.5","0.00","0.00"
"21:44:58","58","43.7","58.9","30.22","228","2.5","6","0.00","0.00"
"21:49:59","57.8","43.6","59","30.22","171","2.4","7","0.00","0.00"
"21:54:56","57.7","43.5","59","30.22","154","1.5","6.9","0.00","0.00"
"21:59:57","57.7","43.5","59","30.22","132","1.6","4","0.00","0.00"
"22:04:58","57.7","43.5","59","30.22","151","2.3","5","0.00","0.00"
"22:09:56","57.7","43.5","59.2","30.22","167","1.4","5","0.00","0.00"
"22:14:59","57.5","43.7","59.9","30.22","162","1.6","4.6","0.00","0.00"
"22:19:56","57.4","43.6","60","30.21","138","2.2","6","0.00","0.00"
"22:24:58","57.3","43.6","60.2","30.21","143","1.7","4","0.00","0.00"
"22:29:59","57.1","43.8","61","30.21","150","1.7","4","0.00","0.00"
"22:34:56","56.9","43.6","61","30.21","157","1.3","5","0.00","0.00"
"22:39:59","56.7","43.6","61.6","30.21","202","1.5","3.5","0.00","0.00"
"22:44:56","56.5","43.6","62","30.21","202","0.7","2.3","0.00","0.00"
"22:49:58","56.3","43.4","62","30.21","200","0.5","3","0.00","0.00"
"22:54:56","56.1","43.5","62.7","30.21","155","1.3","4","0.00","0.00"
"22:59:57","55.8","43.6","63.6","30.21","146","0.9","3.5","0.00","0.00"
"23:04:57","55.6","43.6","64","30.21","142","0.6","3.5","0.00","0.00"
"23:09:56","55.5","43.5","64.1","30.21","142","1.1","5","0.00","0.00"
"23:14:58","55.2","43.6","65","30.21","144","1.1","4","0.00","0.00"
"23:19:56","55.1","43.5","65","30.20","123","1.9","4","0.00","0.00"
"23:24:57","55.2","43.6","65.1","30.20","118","0.8","3","0.00","0.00"
"23:29:57","55.3","43.7","65.2","30.20","158","1.2","3.5","0.00","0.00"
"23:34:59","55.3","43.7","65.2","30.20","162","1.3","3.5","0.00","0.00"
"23:39:58","55.1","43.8","65.7","30.20","162","0.9","3.5","0.00","0.00"
"23:44:59","55","43.8","66","30.20","161","0.5","2.3","0.00","0.00"
"23:49:59","54.9","43.7","66","30.19","166","0.2","2.3","0.00","0.00"
"23:54:56","54.6","43.9","67","30.19","169","0.8","3","0.00","0.00"
"23:59:56","54.3","44","67.9","30.20","215","1.1","4","0.00","0.00"
